Tracking 22124 objects as of 25-Jan-2021
HD Live streaming from Space Station
objects crossing your sky now

STARLINK-1867

Track STARLINK-1867 now!
10-day predictions
STARLINK-1867 is classified as:


NORAD ID: 47153
Int'l Code: 2020-088AH
Perigee: 543.9 km
Apogee: 545.8 km
Inclination: 53.0 °
Period: 95.4 minutes
Semi major axis: 6915 km
RCS: Unknown
Launch date: November 25, 2020
Source: United States (US)
Launch site: AIR FORCE EASTERN TEST RANGE (AFETR)
aabbcc
Your satellite tracking list
Your tracking list is empty




NASA's NSSDC Master Catalog

Two Line Element Set (TLE):
1 47153U 20088AH  21024.91667824 -.01127629  00000-0 -75462-1 0  9995
2 47153  53.0472  60.3470 0001338  69.7814 229.4747 15.09505518 10200
Source of the keplerian elements: AFSPC